Startseite
Über Mich
AHP4
Galerie
Sehschlangen
Tourenbuch
Bookmarks
Elektronik
Bewertung
Geschichten
[Tagesmessung] [Jahreswerte] [Information]

Messwerte vom 25.05.2022

Die letzten Messwerte von 23:58:46 Uhr:
KategorieMesswert
Temperatur [°C]15
Luftdruck [mBar]999
Sonneneinstrahlung0
Wind [km/h]0 aus Südost
Niederschlag [l/m²]0
rel.Luftfeucht.54.1%
CO2 [ppm]434

Diagramme
Messwerte vom 25.05.2022
Tagesaggregation
KategorieMinimumMaximumSchnittSumme
Temperatur [°C]82816.2034
Luftdruck [mBar]995999997.6231
Sonneneinstrahlung248134.9251
Wind [km/h]13
rF [%]26.996.662.89
Niederschlag [l/m²]0
CO2 [ppm]404521467.4
Einordnung alsVegetationstag
Sommertag

Messungen an benachbarten Tagen: Zur Jahresaggregation 2022
Tabelle aller Messwerte
UhrzeitTemperatur [°C]Luftdruck [mBar]SonneWind [km/h]RichtungRegen [l/m²]rF [%]CO2 [ppm]
00:01:48 10 995 0 0 SO 0 80.9 475
00:04:51 10 995 0 0 NW 0 81.6 468
00:07:48 10 995 0 0 NW 0 81.8 462
00:10:49 10 995 0 0 NW 0 82.4 468
00:13:47 10 995 0 0 NW 0 83.3 468
00:16:46 10 995 0 0 NW 0 83.1 477
00:19:45 10 995 0 0 NW 0 83.2 475
00:22:47 10 995 0 0 NW 0 83.4 474
00:25:47 10 996 0 0 NW 0 83.7 470
00:28:49 10 995 0 0 NW 0 85.8 468
00:31:49 10 995 0 0 NW 0 86.5 469
00:34:47 10 996 0 0 NW 0 87.2 475
00:37:46 10 995 0 0 SO 0 87.3 472
00:40:47 10 995 0 1 SO 0 88 478
00:43:47 9 995 0 1 SO 0 87.8 474
00:46:49 9 995 0 0 SO 0 87.7 480
00:49:47 9 995 0 0 SO 0 87.8 480
00:52:46 9 995 0 0 SO 0 87.7 480
00:55:46 9 995 0 0 SO 0 88.1 477
00:58:49 9 995 0 0 SO 0 88.5 480
01:01:46 9 995 0 0 O 0 89.1 480
01:04:45 9 995 0 0 O 0 89.3 480
01:07:47 9 995 0 0 O 0 89.3 483
01:10:45 9 996 0 0 O 0 89.8 483
01:13:47 9 996 0 0 SO 0 90.1 477
01:16:47 9 995 0 0 SO 0 91.1 474
01:19:47 9 996 0 2 NW 0 91.5 475
01:22:47 9 996 0 0 NW 0 92 485
01:25:49 9 995 0 0 NW 0 91.5 486
01:28:47 9 996 0 0 NW 0 91.5 489
01:31:47 9 995 0 0 NO 0 91.7 486
01:34:45 9 996 0 1 O 0 92.3 483
01:37:45 9 995 0 0 O 0 92.9 483
01:40:44 9 995 0 0 O 0 93.4 486
01:43:46 8 996 0 0 O 0 92.9 489
01:46:47 8 995 0 0 O 0 92.6 498
01:49:46 8 995 0 0 O 0 92.5 495
01:52:44 8 995 0 0 O 0 92.6 489
01:55:45 8 995 0 0 O 0 93 485
01:58:46 8 995 0 0 NO 0 93.3 483
02:01:46 8 995 0 0 NO 0 93.5 483
02:04:45 8 995 0 0 NO 0 94 495
02:07:47 8 996 0 0 NO 0 94.2 497
02:10:48 8 995 0 0 NO 0 94.2 494
02:13:46 8 996 0 0 NO 0 94.5 492
02:16:48 8 996 0 0 NO 0 94.7 489
02:19:45 8 996 0 0 NO 0 94.7 493
02:22:47 8 995 0 0 NO 0 94.8 492
02:25:49 8 995 0 0 NO 0 94.7 496
02:28:47 8 996 0 0 NO 0 94.7 490
02:31:49 8 995 0 0 NO 0 94.8 489
02:34:48 8 996 0 0 NO 0 95 490
02:37:48 8 995 0 0 NO 0 95.2 494
02:40:46 8 995 0 0 O 0 95.3 493
02:43:48 9 996 0 0 S 0 95.6 499
02:46:49 9 996 0 0 SO 0 95.9 495
02:49:46 9 996 0 0 N 0 96.1 498
02:52:50 9 996 0 0 SO 0 96 498
02:55:46 9 995 0 0 N 0 95.9 498
02:58:47 9 995 0 0 N 0 95.9 492
03:01:47 9 996 0 0 SO 0 95.8 495
03:04:46 9 996 0 0 SO 0 95.8 500
03:07:48 9 995 0 0 SO 0 95.8 489
03:10:48 9 996 0 0 SO 0 95.9 495
03:13:48 9 996 0 0 SO 0 95.9 498
03:16:45 9 996 0 0 N 0 96 497
03:19:48 9 996 0 0 N 0 96 504
03:22:47 9 996 0 0 N 0 96.1 503
03:25:45 9 996 0 0 N 0 96 500
03:28:44 9 996 0 0 N 0 96 503
03:31:46 9 996 0 0 N 0 96.1 497
03:34:45 9 996 0 0 N 0 96.2 500
03:37:46 9 996 0 0 N 0 96.2 500
03:40:48 9 997 0 0 NO 0 96.3 504
03:43:47 9 996 0 0 NO 0 96.3 504
03:46:48 9 996 0 0 NO 0 96.3 501
03:49:46 8 997 0 0 NO 0 96.2 494
03:52:47 8 996 0 0 NO 0 96.2 494
03:55:49 8 997 0 0 NO 0 96.2 497
03:58:47 8 996 0 0 NO 0 96.2 507
04:01:48 8 996 0 0 SO 0 96.1 506
04:04:47 8 996 0 0 SO 0 96.1 516
04:07:47 8 997 0 0 SO 0 96.2 516
04:10:45 8 996 0 0 SO 0 96.3 512
04:13:46 8 996 0 0 SO 0 96.3 504
04:16:47 8 996 0 0 SO 0 96.3 512
04:19:48 8 997 0 0 SO 0 96.5 504
04:22:46 8 997 0 0 O 0 96.4 515
04:25:46 8 996 0 0 O 0 96.4 509
04:28:45 8 997 0 0 O 0 96.5 509
04:31:47 8 997 0 1 NW 0 96.6 506
04:34:45 8 997 0 0 NW 0 96.6 507
04:37:45 8 996 3 0 O 0 96.6 509
04:40:45 8 997 4 0 O 0 96.6 512
04:43:47 8 997 6 0 O 0 96.6 512
04:46:47 8 996 8 0 O 0 96.6 521
04:49:45 8 996 12 0 O 0 96.6 518
04:52:47 8 996 17 0 O 0 96.6 512
04:55:45 8 997 22 0 O 0 96.6 507
04:58:46 8 997 26 0 O 0 96.5 509
05:01:45 8 997 30 0 O 0 96.5 510
05:04:46 8 997 34 0 O 0 96.6 509
05:07:47 8 997 39 0 O 0 96.6 503
05:10:46 8 997 45 0 O 0 96.6 501
05:13:45 8 997 52 0 O 0 96.6 500
05:16:45 8 997 61 0 O 0 96.6 500
05:19:48 8 997 70 0 SW 0 96.6 502
05:22:48 8 997 78 0 S 0 96.6 513
05:25:47 9 998 84 0 SO 0 96.6 513
05:28:48 9 997 90 0 NW 0 96.6 507
05:31:49 9 998 96 0 NW 0 96.6 503
05:34:49 9 998 104 0 NO 0 96.6 496
05:37:47 9 998 111 0 SO 0 96.6 500
05:40:48 9 996 118 0 SO 0 96.6 504
05:43:49 9 998 124 0 SO 0 96.6 513
05:46:48 9 997 132 0 SO 0 96.6 510
05:49:48 9 998 137 0 NW 0 96.6 510
05:52:50 9 998 142 0 SW 0 96.6 510
05:55:46 9 998 147 0 SW 0 96.6 507
05:58:48 9 998 151 0 W 0 96.6 507
06:01:47 9 998 153 0 O 0 96.6 507
06:04:46 9 998 154 1 S 0 96.6 510
06:07:48 9 998 155 0 NW 0 96.6 512
06:10:47 9 998 157 0 N 0 96.6 510
06:13:45 9 997 159 0 N 0 96.6 509
06:16:49 9 998 163 0 O 0 96.6 506
06:19:48 9 998 166 0 O 0 96.6 507
06:22:51 9 997 168 0 NW 0 96.6 501
06:25:50 9 998 171 0 NW 0 96.6 507
06:28:47 9 997 172 0 S 0 96.6 506
06:31:46 9 998 173 0 NO 0 96.6 497
06:34:49 9 998 174 0 SW 0 96.6 501
06:37:47 10 997 175 0 S 0 96.6 501
06:40:48 10 998 178 3 SW 0 96.6 498
06:43:49 10 998 180 5 W 0 96.3 500
06:46:45 10 997 181 3 S 0 96.1 497
06:49:53 10 998 182 2 SW 0 95.6 498
06:52:49 10 998 182 2 SW 0 95.3 498
06:55:48 11 998 183 0 S 0 94.9 498
06:58:49 11 998 184 1 SO 0 94.2 503
07:01:49 11 998 184 1 N 0 93.6 509
07:04:49 11 998 184 0 SO 0 92.6 512
07:07:50 11 998 185 3 SW 0 92.1 506
07:10:49 12 998 184 2 SW 0 91.3 507
07:13:47 13 998 184 1 O 0 89.2 509
07:16:50 13 998 184 3 SO 0 86.2 513
07:19:50 13 998 184 6 NO 0 84.3 506
07:22:48 14 998 184 3 SW 0 82.8 509
07:25:46 14 998 184 10 O 0 80.6 513
07:28:47 15 998 184 3 W 0 76.2 503
07:31:47 16 998 184 4 W 0 70.4 507
07:34:50 17 998 184 0 NW 0 69.7 500
07:37:48 17 998 184 2 S 0 69.3 495
07:40:48 17 998 185 1 SO 0 66 498
07:43:46 17 998 185 1 S 0 65.7 501
07:46:49 18 998 185 2 SW 0 65.5 500
07:49:48 18 998 185 1 O 0 62.9 503
07:52:49 18 998 185 2 O 0 62.9 500
07:55:45 18 998 185 1 O 0 63.1 495
07:58:48 18 998 185 0 SW 0 62.2 492
08:01:51 16 998 185 0 SO 0 65.1 503
08:04:48 15 998 186 5 0 68.8 507
08:07:48 15 998 186 3 S 0 71.5 504
08:10:48 15 998 186 1 N 0 71.6 495
08:13:48 14 998 186 4 SO 0 74.3 500
08:16:33 14 998 186 2 S 0 58.1 505
08:19:48 14 998 187 5 S 0 76.2 503
08:22:48 14 998 187 7 S 0 75.1 501
08:25:49 14 998 187 2 SW 0 75.9 501
08:28:50 14 998 187 1 SW 0 76.5 498
08:31:48 14 998 187 0 S 0 76.7 498
08:34:48 14 998 188 2 SW 0 76.8 495
08:37:49 14 998 188 3 SW 0 76 495
08:40:47 14 998 188 3 S 0 75.9 497
08:43:47 14 998 189 1 S 0 76.4 491
08:46:49 14 999 189 2 S 0 76 498
08:49:46 14 998 189 2 S 0 75.4 504
08:52:48 14 998 191 1 S 0 73.9 497
08:55:47 14 998 189 4 SW 0 74.7 497
08:58:50 14 998 186 0 NW 0 75.7 501
09:01:47 14 998 191 0 O 0 76 502
09:04:48 15 998 191 2 SW 0 75.6 507
09:07:48 15 998 197 3 S 0 73.3 497
09:10:47 15 998 195 0 W 0 73.7 495
09:13:48 15 998 196 5 NW 0 75.7 492
09:16:50 15 998 202 2 SO 0 75.1 486
09:19:49 15 998 204 0 SW 0 74.5 487
09:22:49 15 998 204 2 SW 0 73.4 489
09:25:49 16 998 212 2 W 0 73.4 489
09:28:49 16 998 207 0 SO 0 73.5 492
09:31:47 16 998 215 1 O 0 71.1 492
09:34:48 16 998 212 6 SO 0 68.7 495
09:37:48 16 998 212 4 S 0 67.8 495
09:40:48 16 998 211 3 SO 0 67 500
09:43:48 16 998 205 3 SW 0 66.5 500
09:46:49 16 998 204 1 SO 0 66.3 504
09:49:49 16 998 215 4 SO 0 67.6 500
09:52:47 16 999 216 2 S 0 67.7 495
09:55:47 17 998 210 2 SO 0 67.7 495
09:58:50 17 998 217 0 SW 0 67.9 495
10:01:48 17 998 211 2 SW 0 67.6 497
10:04:48 17 998 212 0 NO 0 67.4 497
10:07:48 17 998 215 2 S 0 66.4 500
10:10:48 16 998 219 0 W 0 65.2 498
10:13:47 17 999 216 1 W 0 65.8 498
10:16:51 17 999 216 5 W 0 68.5 496
10:19:48 17 998 213 1 SW 0 68.5 503
10:22:33 16 998 215 2 O 0 58.2 501
10:25:49 18 998 219 0 SW 0 64.3 497
10:28:47 18 999 219 7 SO 0 63.1 495
10:31:46 18 998 213 3 W 0 62.7 495
10:34:50 18 998 209 5 S 0 62.1 492
10:37:49 18 998 210 2 SW 0 61.8 492
10:40:49 18 998 205 2 NW 0 61.8 492
10:43:47 17 998 215 1 NO 0 61.7 491
10:46:47 17 998 221 4 S 0 62 497
10:49:50 18 999 217 5 SO 0 62 492
10:52:47 18 998 210 1 SW 0 61.9 489
10:55:48 18 999 213 2 NW 0 62 486
10:58:48 18 999 210 3 S 0 61.6 495
11:01:48 18 998 202 0 NW 0 61.1 492
11:04:48 18 998 207 8 S 0 58.9 489
11:07:48 17 999 216 5 O 0 58.2 483
11:10:47 17 998 214 6 SO 0 57.8 489
11:13:48 18 998 213 3 W 0 59.1 489
11:16:48 18 998 218 5 S 0 57.3 492
11:19:45 18 998 219 4 O 0 56.4 498
11:22:47 18 998 211 1 SO 0 56 503
11:25:48 19 998 209 2 SO 0 55.6 501
11:28:46 19 998 217 4 SW 0 56.7 501
11:31:49 19 999 223 0 S 0 57.4 492
11:34:46 20 999 222 3 S 0 54.4 492
11:37:50 20 998 225 6 SW 0 50.1 493
11:40:48 20 999 221 4 SW 0 50.4 492
11:43:47 20 998 220 4 S 0 51.2 495
11:46:49 20 998 219 4 SO 0 51.6 493
11:49:48 20 999 221 7 SO 0 51.9 492
11:52:49 21 998 215 5 NW 0 51.7 490
11:55:49 21 998 211 3 SW 0 51.9 487
11:58:49 21 998 212 2 SW 0 50.2 489
12:01:47 22 998 216 0 W 0 49.1 483
12:04:51 22 999 223 2 SW 0 46.8 480
12:07:50 22 998 225 13 SW 0 45 489
12:10:50 22 999 223 6 W 0 44.3 489
12:13:47 21 998 225 0 SO 0 44.5 499
12:16:50 22 998 226 1 NO 0 47.5 492
12:19:49 22 998 227 2 N 0 48.6 492
12:22:48 22 998 220 5 S 0 48.4 487
12:25:48 21 998 221 3 SW 0 48.3 490
12:28:47 21 998 218 3 S 0 48.2 492
12:31:46 20 999 215 0 S 0 49.9 489
12:34:50 20 998 214 0 NW 0 51.4 480
12:37:48 20 998 209 0 W 0 52.3 481
12:40:48 20 998 213 2 NW 0 52.7 481
12:43:48 20 998 211 0 NW 0 51.2 478
12:46:48 19 999 217 1 S 0 53.2 480
12:49:50 21 998 219 0 NO 0 53.9 489
12:52:30 19 998 219 5 O 0 44.2 489
12:55:48 23 998 218 7 S 0 47.4 486
12:58:47 22 998 221 1 W 0 45 489
13:01:53 22 998 226 6 SW 0 42.8 483
13:04:49 23 998 227 0 NW 0 42.7 480
13:07:47 24 998 229 2 N 0 41.9 483
13:10:49 24 998 222 8 S 0 36.9 483
13:13:48 23 998 217 2 SO 0 37.5 483
13:16:48 22 998 214 2 SW 0 41.8 489
13:19:50 21 998 212 2 W 0 43.2 484
13:22:51 21 998 221 0 NW 0 44.2 485
13:25:48 21 999 228 3 NW 0 45.7 483
13:28:52 22 998 227 5 SW 0 46 487
13:31:47 22 998 226 10 O 0 45.2 480
13:34:48 22 998 227 3 SO 0 43 477
13:37:46 22 998 228 1 S 0 42 480
13:58:48 24 998 234 9 W 0 37.5 480
14:01:50 24 998 235 2 SW 0 38.2 483
14:04:49 24 998 233 3 S 0 35.7 483
14:16:48 24 998 241 5 S 0 32.7 480
14:19:48 24 998 233 4 NW 0 32.6 474
14:22:47 23 998 234 5 W 0 33.4 475
14:25:47 23 998 241 2 S 0 35.1 471
14:28:47 23 998 238 3 S 0 36 477
14:31:48 24 998 242 4 0 36 480
14:34:47 25 998 242 3 SO 0 35.8 474
14:37:50 25 998 240 7 SW 0 36.1 483
14:40:47 25 998 242 0 S 0 33.2 481
14:43:50 25 998 236 2 SW 0 33.6 475
14:46:50 25 998 237 2 SO 0 35 477
15:01:49 24 998 243 4 NW 0 35.1 485
15:04:50 24 998 240 7 SW 0 33.4 477
15:07:47 24 998 243 7 O 0 33 471
15:10:50 24 998 243 7 SW 0 32.2 471
15:13:47 24 998 244 3 SO 0 33 475
15:16:47 24 998 244 3 S 0 35 471
15:19:50 24 998 235 2 S 0 34.4 469
15:22:47 25 998 245 6 O 0 34 466
15:25:50 25 998 241 4 NW 0 32.4 469
15:28:49 25 998 235 1 SO 0 32.8 474
15:31:47 24 998 242 9 O 0 33.2 474
15:34:48 24 998 242 4 SO 0 32.9 468
15:37:48 24 998 243 5 SO 0 33.7 460
15:40:48 24 998 244 5 O 0 32.1 469
15:43:47 24 998 245 7 S 0 32.2 471
15:46:48 24 998 246 2 NW 0 32.5 471
15:49:50 25 998 246 5 S 0 33.9 474
15:52:48 25 998 237 4 SO 0 33.8 472
15:55:49 25 998 238 6 NW 0 31.6 463
15:58:49 25 998 244 2 SO 0 31.5 462
16:01:47 25 998 243 4 S 0 32.5 422
16:04:48 25 998 242 0 SW 0 34.1 419
16:07:47 25 998 241 8 S 0 33.5 419
16:10:51 24 998 235 1 SO 0 34 422
16:13:48 24 998 232 5 SW 0 33.9 419
16:16:47 23 998 232 3 SW 0 34.9 424
16:19:48 23 998 248 3 S 0 36.4 419
16:22:48 23 998 248 1 SO 0 37.9 418
16:25:48 25 998 238 4 S 0 36.9 422
16:28:49 25 998 247 2 SW 0 33.7 419
16:31:52 25 998 243 3 SW 0 31.2 419
16:34:48 25 998 242 3 W 0 32 421
16:37:48 25 998 241 3 SO 0 33.2 422
16:40:50 25 998 246 6 SO 0 31.9 422
16:43:47 26 998 248 2 S 0 33.5 419
16:46:49 27 998 247 3 NW 0 33.1 412
16:49:46 27 998 246 1 W 0 32.5 410
16:52:47 27 998 244 7 SO 0 30.9 410
16:55:47 27 998 247 3 SW 0 30.7 415
16:58:48 27 998 247 1 SO 0 31.3 418
17:01:51 27 998 247 5 NW 0 29.9 419
17:04:48 27 998 247 4 W 0 29.6 415
17:07:47 27 998 247 3 SW 0 29.8 410
17:10:46 27 998 247 6 O 0 29.9 406
17:13:48 27 998 247 5 SW 0 29.9 409
17:16:48 26 998 247 2 SW 0 28.2 410
17:19:50 26 998 247 4 O 0 31.3 416
17:22:47 26 998 229 3 W 0 31.1 410
17:25:48 25 998 247 1 SW 0 30.4 416
17:28:48 26 998 247 3 S 0 32.1 413
17:31:49 27 998 247 4 O 0 29.9 410
17:34:48 28 998 247 4 N 0 29.5 407
17:37:49 28 998 247 9 NW 0 27.9 416
17:40:47 28 998 247 1 SO 0 27.1 418
17:43:48 28 998 247 1 SO 0 28.2 410
17:46:47 28 998 248 6 S 0 27.6 407
17:49:49 28 998 241 1 NW 0 26.9 412
17:52:49 26 998 245 5 SO 0 28.2 413
17:55:28 27 998 242 3 O 0 35.2 410
17:58:47 25 998 242 5 S 0 30.6 413
18:01:49 25 998 247 1 SO 0 31.1 416
18:04:49 25 998 242 4 SW 0 31.4 418
18:07:49 24 998 240 7 SO 0 31.2 413
18:10:49 24 998 237 1 SW 0 33.8 410
18:13:49 23 998 233 2 O 0 35.3 410
18:16:46 22 998 240 3 S 0 35.3 408
18:19:49 22 998 237 11 O 0 35.3 408
18:22:47 22 998 238 1 W 0 35.2 410
18:25:49 22 998 239 0 SW 0 36.4 415
18:28:48 23 998 240 1 S 0 37.5 407
18:31:48 23 998 239 2 S 0 37 406
18:34:49 23 998 236 8 S 0 36.8 407
18:37:49 22 998 237 5 NO 0 36.7 416
18:40:50 22 998 233 2 SO 0 36.8 410
18:43:48 22 998 229 0 SW 0 36.2 407
18:46:46 21 998 226 7 O 0 37.4 407
18:49:48 21 998 233 1 SW 0 38.8 415
18:52:47 21 998 232 1 O 0 40.4 413
18:55:48 21 998 237 1 W 0 40.5 410
18:58:46 21 998 228 1 S 0 41.2 404
19:01:49 21 998 225 2 S 0 39 413
19:04:48 21 998 226 4 SW 0 39 413
19:07:49 20 998 225 2 W 0 40.9 416
19:10:50 20 998 223 1 S 0 40.8 410
19:13:50 20 998 221 3 SW 0 40.8 413
19:16:45 20 998 219 2 S 0 41 410
19:19:48 20 998 217 1 SO 0 40.9 410
19:22:48 20 998 220 3 O 0 40.9 407
19:25:47 20 998 212 2 S 0 40.3 407
19:28:49 20 998 190 2 SO 0 40 409
19:31:49 20 998 187 5 NW 0 40.5 415
19:34:48 19 998 196 1 SW 0 39.8 413
19:37:47 19 999 191 3 O 0 39.6 409
19:40:46 19 999 188 1 S 0 40.3 410
19:43:48 19 998 189 1 SW 0 41 410
19:46:48 19 998 190 1 S 0 42.3 410
19:49:46 19 998 198 4 O 0 42.5 409
19:52:50 19 998 204 8 NW 0 42.1 404
19:55:46 19 998 209 2 S 0 42.5 409
19:58:50 19 998 208 6 NW 0 42 413
20:01:46 19 998 203 3 S 0 41.9 415
20:04:48 19 999 197 1 SW 0 41.4 416
20:07:49 18 998 190 0 SO 0 41.6 412
20:10:49 18 998 180 3 NW 0 42.1 413
20:13:48 18 998 170 3 S 0 42.8 413
20:16:48 18 998 164 5 NW 0 42.3 424
20:19:49 18 999 158 0 SO 0 42.3 424
20:22:47 18 998 146 0 SW 0 42.8 419
20:25:46 17 998 123 1 W 0 43.4 418
20:28:47 17 998 123 0 O 0 43.9 427
20:31:48 17 998 137 3 SW 0 44 424
20:34:47 17 998 140 1 SW 0 44.2 430
20:37:48 17 998 134 0 S 0 43.9 421
20:40:47 17 999 127 1 S 0 44 419
20:43:47 17 998 125 0 SW 0 44.2 418
20:46:50 17 999 118 0 SO 0 44.5 422
20:49:51 17 999 112 1 SW 0 44.8 421
20:52:45 17 999 112 0 S 0 44.8 421
20:55:46 17 998 115 2 SO 0 45.5 418
20:58:47 17 998 107 7 W 0 45.9 422
21:01:50 17 998 96 2 SO 0 46.2 422
21:04:46 17 998 83 5 O 0 46.8 427
21:07:47 17 998 64 5 W 0 47.1 424
21:10:47 17 999 55 1 NW 0 47 424
21:13:46 17 999 45 1 S 0 47.5 424
21:16:47 17 998 39 0 S 0 47.8 424
21:19:47 17 998 34 2 SO 0 47.5 427
21:22:46 17 999 29 2 SO 0 47.6 427
21:25:46 17 999 25 7 SO 0 47.7 422
21:28:47 16 998 23 1 O 0 47.9 427
21:31:48 16 998 20 0 SW 0 48.1 422
21:34:47 16 999 15 0 SW 0 48.1 422
21:37:47 16 999 11 0 S 0 48.8 424
21:40:47 16 999 8 0 S 0 49.2 427
21:43:46 16 999 6 1 S 0 49.3 424
21:46:46 16 999 4 2 SO 0 49.2 419
21:49:46 16 998 0 1 S 0 49.1 413
21:52:47 16 998 0 9 S 0 49.1 424
21:55:47 16 998 0 0 SO 0 49.1 425
21:58:47 16 999 0 0 S 0 49.3 425
22:01:47 16 999 0 0 SW 0 49.3 428
22:04:48 16 999 0 0 SW 0 49.4 430
22:07:48 16 999 0 0 S 0 50 433
22:10:46 16 999 0 0 S 0 50 427
22:13:50 16 999 0 0 SO 0 50.1 422
22:16:45 16 999 0 0 S 0 50.3 424
22:19:45 16 999 0 0 S 0 50.6 425
22:22:47 16 999 0 0 SO 0 51 424
22:25:49 15 998 0 0 SO 0 51.2 425
22:28:48 15 999 0 0 SO 0 51.9 422
22:31:46 15 998 0 0 S 0 52.3 424
22:34:46 15 998 0 0 S 0 53.1 425
22:37:48 15 999 0 0 SO 0 53.6 430
22:40:47 15 998 0 0 S 0 53.9 427
22:43:46 15 998 0 0 S 0 53.8 430
22:46:46 15 999 0 0 S 0 53.9 430
22:49:49 15 999 0 0 SO 0 53.7 424
22:52:48 15 999 0 0 SW 0 53.7 418
22:55:47 15 999 0 0 SO 0 53.8 421
22:58:45 15 999 0 0 S 0 54 439
23:01:46 15 999 0 1 SW 0 54 439
23:04:47 15 999 0 0 SW 0 53.9 434
23:07:46 15 999 0 0 SO 0 53.7 427
23:10:46 15 999 0 0 SW 0 53.7 421
23:13:47 15 999 0 0 NW 0 53.7 425
23:16:45 15 999 0 1 S 0 53.8 424
23:19:45 15 999 0 1 SW 0 53.9 430
23:22:46 15 999 0 0 S 0 54.1 427
23:25:46 15 999 0 1 W 0 54.1 439
23:28:46 15 999 0 0 S 0 54.1 445
23:31:46 15 999 0 0 W 0 54 436
23:34:46 15 999 0 2 S 0 53.9 427
23:37:46 15 999 0 3 W 0 54 424
23:40:49 15 999 0 1 SO 0 53.8 427
23:43:44 15 998 0 0 W 0 53.8 424
23:46:46 16 999 0 1 S 0 53.7 428
23:49:46 16 999 0 1 S 0 53.8 425
23:52:46 15 999 0 0 SO 0 53.8 422
23:55:46 15 999 0 1 SO 0 53.8 431
23:58:46 15 999 0 0 SO 0 54.1 434

Letzte Änderung : 04-Jan-2022
Copyright Jens Köhler, Wolfsburg, Obere Dorfstraße 10d